Location: Unspecified
(0.0000°N, 0.0000°E)
Time: 21:13:15
(UTC+00:00)

Alouette 1 - Pass Details

Date: 31 October 2021
Orbit: 985 x 1019 km, 80.5° (Epoch: 07 December)

Event Time Altitude Azimuth Distance (km) Brightness Sun altitude
Rises 04:39:28 0° 156° (SSE) 3,707 9.6 -15.5°
Reaches altitude 10° 04:42:51 10° 138° (SE) 2,761 9.3 -14.7°
Maximum altitude 04:47:05 19° 95° (E) 2,199 9.0 -13.7°
Drops below altitude 10° 04:51:18 10° 53° (NE) 2,770 8.9 -12.7°
Sets 04:54:40 0° 36° (NE) 3,724 9.3 -11.9°
